Regional Weather Roundup
Issued by NWS

Home | Current Version | Previous Version | Text Only | Print | Product List | Glossary On
Versions: 1 2 3 4 5 6 7 8 9 10 11 12 13 14 15 16 17 18 19 20 21 22 23 24 25 26 27 28 29 30 31 32 33 34 35 36 37 38 39 40 41 42 43 44 45 46 47 48 49 50
000
ASUS46 KSEW 181810
RWRWA

WASHINGTON REGIONAL WEATHER ROUNDUP
NATIONAL WEATHER SERVICE SEATTLE WA
1000 AM PST THU JAN 18 2018

NOTE:"FAIR" INDICATES FEW OR NO CLOUDS BELOW 12,000 FEET WITH NO
SIGNIFICANT WEATHER AND/OR OBSTRUCTIONS TO VISIBILITY.

WAZ507-509-555>559-181900-
SEATTLE, TACOMA, EVERETT, AND VICINITY

CITY           SKY/WX    TMP DP  RH WIND       PRES   REMARKS
EVERETT        MOSUNNY   46  39  76 SE15G24   29.81S
6HR MIN TEMP:  41; 6HR MAX TEMP:  46; 6HR PCP:  0.01;

BOEING FIELD   PTSUNNY   46  41  82 SE14      29.84F
6HR MIN TEMP:  42; 6HR MAX TEMP:  46; 6HR PCP:  0.12;

RENTON         MOSUNNY   46  41  82 S7        29.85F
6HR MIN TEMP:  44; 6HR MAX TEMP:  46; 6HR PCP:  0.09;

SEATAC AIRPORT PTSUNNY   46  40  79 SE12      29.84F
6HR MIN TEMP:  42; 6HR MAX TEMP:  46; 6HR PCP:  0.10;

JBLM-MCCHORD   PTSUNNY   47  46  99 SE7       29.84F
6HR MIN TEMP:  39; 6HR MAX TEMP:  47; 6HR PCP:  0.10;

PUYALLUP       FAIR      48  41  76 VRB3      29.84F
BREMERTON      PTSUNNY   44  41  89 S8        29.82S
6HR MIN TEMP:  40; 6HR MAX TEMP:  44; 6HR PCP:  0.05;

JBLM-FT LEWIS  PTSUNNY   47  47  99 SE7       29.83F
6HR MIN TEMP:  39; 6HR MAX TEMP:  47; 6HR PCP:  0.10;

TACOMA NARROWS PTSUNNY   45  40  82 S5        29.84F
6HR MIN TEMP:  42; 6HR MAX TEMP:  45; 6HR PCP:  0.12;

$$

WAZ001-503-506-510-514-515-181900-
NORTH INTERIOR

CITY           SKY/WX    TMP DP  RH WIND       PRES   REMARKS
BELLINGHAM     PTSUNNY   48  39  71 SE20G31   29.77S
6HR MIN TEMP:  45; 6HR MAX TEMP:  48;

FRIDAY HARBOR  MOSUNNY   45  40  82 SE18G30   29.75S
6HR MIN TEMP:  43; 6HR MAX TEMP:  46; 6HR PCP: TRACE;

EASTSOUND      MOSUNNY   48  41  76 S9G16     29.76R
PORT ANGELES   LGT RAIN  45  37  73 S8        29.75R
6HR MIN TEMP:  40; 6HR MAX TEMP:  46; 6HR PCP:  0.01;

EDIZ HOOK      LGT RAIN  46  35  65 S10G22    29.75R
6HR MIN TEMP:  43; 6HR MAX TEMP:  46; 6HR PCP:  0.01;

PORT TOWNSEND  FAIR      46  41  81 SE15      29.80R
NAS WHIDBEY    CLOUDY    50  40  68 S23G36    29.81F
6HR MIN TEMP:  46; 6HR MAX TEMP:  51; 6HR PCP: TRACE;

ARLINGTON      PTSUNNY   47  39  74 SE20      29.82S
6HR MIN TEMP:  42; 6HR MAX TEMP:  47; 6HR PCP: TRACE;

BURLINGTON     SUNNY     48  39  71 SE10G18   29.78F
$$

WAZ020-022-039-040-504-511-512-181900-
SOUTHWEST INTERIOR

CITY           SKY/WX    TMP DP  RH WIND       PRES   REMARKS
SHELTON        CLOUDY    46  42  86 SE9       29.79S
6HR MIN TEMP:  43; 6HR MAX TEMP:  46; 6HR PCP: TRACE;

OLYMPIA        PTSUNNY   46  41  82 S9        29.83F
6HR MIN TEMP:  39; 6HR MAX TEMP:  46; 6HR PCP:  0.16;

CHEHALIS       FAIR      45  43  93 S10       29.85S
KELSO          LGT RAIN  45  41  86 S5        29.88S FOG
6HR MIN TEMP:  44; 6HR MAX TEMP:  48; 6HR PCP:  0.17;

VANCOUVER      CLOUDY    48  39  71 S6        29.89F
6HR MIN TEMP:  47; 6HR MAX TEMP:  50; 6HR PCP: TRACE;

SCAPPOOSE, OR  CLOUDY    47  42  83 VRB5      29.87F
6HR MIN TEMP:  44; 6HR MAX TEMP:  49; 6HR PCP:  0.08;

PORTLAND, OR   CLOUDY    47  39  74 S15       29.90F
6HR MIN TEMP:  47; 6HR MAX TEMP:  50; 6HR PCP: TRACE;

$$

WAZ021-516-517-181900-
WASHINGTON COAST

CITY           SKY/WX    TMP DP  RH WIND       PRES   REMARKS
FORKS          CLOUDY    49  40  71 S17G28    29.69S
6HR MIN TEMP:  46; 6HR MAX TEMP:  50; 6HR PCP:  0.03;

HOQUIAM        CLOUDY    49  43  80 SE20      29.78S HAZE
6HR MIN TEMP:  47; 6HR MAX TEMP:  50;

ASTORIA, OR    LGT RAIN  50  42  74 S13G25    29.80F
6HR MIN TEMP:  48; 6HR MAX TEMP:  51; 6HR PCP: TRACE;

$$

WAZ019-023-024-040-567>569-181900-
CASCADE MOUNTAINS AND COLUMBIA GORGE

CITY           SKY/WX    TMP DP  RH WIND       PRES   REMARKS
STAMPEDE PASS  CLOUDY    33  28  81 VRB6      29.79R
6HR MIN TEMP:  31; 6HR MAX TEMP:  33; 6HR PCP:  0.24;

TROUTDALE, OR  LGT RAIN  47  41  80 S9G22     29.92S
6HR MIN TEMP:  47; 6HR MAX TEMP:  50; 6HR PCP:  0.05;

HOOD RIVER, OR MOCLDY    43  41  93 CALM      29.90S
THE DALLES, OR CLOUDY    47  41  80 W3        29.90S
6HR MIN TEMP:  41; 6HR MAX TEMP:  47;

$$

WAZ026-027-041>044-520-521-181900-
EAST SLOPES

CITY           SKY/WX    TMP DP  RH WIND       PRES   REMARKS
OMAK           CLOUDY    37  37 100 SW5       29.82R
6HR MIN TEMP:  35; 6HR MAX TEMP:  38;

WENATCHEE      FOG       32  32 100 CALM      29.84R VSB 1
6HR MIN TEMP:  30; 6HR MAX TEMP:  34;

ELLENSBURG     PTSUNNY   39  35  86 NW7       29.83R
6HR MIN TEMP:  36; 6HR MAX TEMP:  40; 6HR PCP:  0.02;

YAKIMA         CLOUDY    39  37  92 CALM      29.87R
6HR MIN TEMP:  34; 6HR MAX TEMP:  39;

SUNNYSIDE ARPT CLOUDY    43  37  78 CALM      29.88R
6HR MIN TEMP:  40; 6HR MAX TEMP:  45;

YAKIMA TC        N/A     35  34  95 S3        29.84R
6HR MIN TEMP:  33; 6HR MAX TEMP:  39;

$$

WAZ028-034-035-181900-
COLUMBIA BASIN

CITY           SKY/WX    TMP DP  RH WIND       PRES   REMARKS
EPHRATA        CLOUDY    40  35  83 E3        29.83S HAZE
6HR MIN TEMP:  34; 6HR MAX TEMP:  40;

MOSES LAKE     CLOUDY    41  38  89 SW8       29.85R
6HR MIN TEMP:  38; 6HR MAX TEMP:  41;

PASCO          CLOUDY    48  37  65 SW14      29.90R
6HR MIN TEMP:  40; 6HR MAX TEMP:  48;

RICHLAND ARPT  CLOUDY    48  40  72 SW9       29.89R
6HR MIN TEMP:  42; 6HR MAX TEMP:  48;

HERMISTON, OR  CLOUDY    45  43  93 S12       29.91R
6HR MIN TEMP:  41; 6HR MAX TEMP:  47; 6HR PCP: TRACE;

$$

WAZ036>038-181900-
NORTHEAST WASHINGTON

CITY           SKY/WX    TMP DP  RH WIND       PRES   REMARKS
SPOKANE GEIGER CLOUDY    41  40  96 SW16      29.82R
6HR MIN TEMP:  41; 6HR MAX TEMP:  44; 6HR PCP:  0.07;

SPOKANE FELTS  CLOUDY    45  41  86 SW12      29.83R
6HR MIN TEMP:  38; 6HR MAX TEMP:  46; 6HR PCP:  0.05;

FAIRCHILD AFB  CLOUDY    39  39 100 SW15      29.82R
6HR MIN TEMP:  40; 6HR MAX TEMP:  42; 6HR PCP:  0.07;

COEURDALENE,ID LGT RAIN  41  38  89 S3        29.83R
6HR MIN TEMP:  35; 6HR MAX TEMP:  43; 6HR PCP:  0.11;

DEER PARK      CLOUDY    39  37  92 SW9       29.82R
6HR MIN TEMP:  36; 6HR MAX TEMP:  40; 6HR PCP:  0.03;

$$

WAZ029>033-181900-
SOUTHEAST WASHINGTON

CITY           SKY/WX    TMP DP  RH WIND       PRES   REMARKS
PULLMAN        LGT RAIN  43  40  89 CALM      29.88R FOG
6HR MIN TEMP:  41; 6HR MAX TEMP:  46; 6HR PCP:  0.09;

LEWISTON, ID   LGT RAIN  44  43  96 S8        29.87R
6HR MIN TEMP:  43; 6HR MAX TEMP:  50; 6HR PCP:  0.09;

WALLA WALLA    LGT RAIN  47  41  80 S13       29.93R
6HR MIN TEMP:  43; 6HR MAX TEMP:  54; 6HR PCP:  0.09;

PENDLETON, OR  CLOUDY    44  40  85 W12       29.91
6HR MIN TEMP:  39; 6HR MAX TEMP:  50; 6HR PCP:  0.10;

$$



USA.gov is the U.S. government's official web portal to all federal, state and local government web resources and services.